Probability
6 16 26 55 74 35 3 3 3 3 3 3 3 3 6 10 10 10 10 13 19 32 42 52 71 68 61 65 58 58 61 58 65 58 61 61 61 61 65 68 65 71 71 77 65 65 68 68 61
13 39 52 65 48 6 3 3 3 3 3 3 3 3 3 3 10 10 6 16 29 32 45 52 65 71 65 58 52 58 55 52 61 58 58 61 65 65 65 65 65 65 61 58 68 65 61 61 45
29 55 58 61 16 0 3 3 0 0 3 3 3 3 3 3 6 10 10 19 23 35 52 58 68 61 68 61 55 58 61 65 55 58 55 61 68 65 61 65 68 68 65 68 65 61 58 52 48
58 68 58 32 3 0 0 0 0 0 0 3 0 3 3 3 10 13 13 16 19 29 45 52 65 65 65 61 65 68 68 61 52 55 55 61 65 61 61 58 61 61 61 65 65 65 52 52 52
58 61 48 10 0 0 0 0 0 0 0 3 6 6 10 13 10 16 16 16 13 29 39 42 68 58 61 61 68 68 65 65 58 55 61 61 58 45 45 61 58 65 61 61 61 61 48 52 48
58 45 13 0 0 0 0 0 0 0 3 6 6 3 6 10 13 13 10 10 10 23 32 39 65 58 58 71 65 68 71 71 61 58 48 52 61 52 48 45 42 55 48 48 58 55 42 48 45
45 35 10 0 0 0 0 0 0 0 0 0 6 3 6 6 10 10 10 19 19 23 32 32 35 55 65 65 65 65 61 61 55 52 45 48 58 61 52 48 42 48 42 39 45 48 42 45 48
23 13 3 0 0 0 0 0 0 0 0 0 3 3 10 6 6 10 13 13 13 13 29 35 32 35 35 39 65 68 61 65 61 55 55 55 55 52 58 52 48 45 45 42 35 35 39 42 42
13 19 3 0 0 0 0 0 0 0 0 6 10 10 6 6 6 6 6 6 13 16 19 26 29 42 39 29 35 61 61 55 61 52 45 48 45 42 45 42 48 45 42 45 45 39 39 35 39
13 13 3 0 0 0 0 0 0 0 0 3 6 3 6 6 6 6 6 16 19 16 26 23 26 35 32 35 55 58 39 48 55 52 48 45 58 48 32 32 39 42 45 42 52 48 42 32 23
6 3 3 3 0 0 0 0 0 3 3 3 3 10 13 6 16 10 13 23 26 19 23 23 29 35 35 39 52 48 48 48 45 52 55 55 39 45 35 29 32 39 42 42 39 39 29 26 23
0 3 3 3 0 0 0 0 0 6 6 10 6 10 13 13 13 16 23 23 29 29 26 32 35 39 45 52 52 52 39 39 35 52 42 35 45 39 42 39 42 32 35 35 35 35 29 29 29
0 0 0 0 0 0 0 3 3 6 10 6 10 10 10 6 23 26 23 32 32 32 29 35 45 45 58 71 55 39 45 32 39 45 48 48 45 39 39 39 42 39 39 35 35 26 32 29 26
0 0 0 0 0 0 3 3 6 3 6 10 6 6 6 10 16 19 23 32 29 26 29 32 39 55 61 71 71 58 42 55 39 45 45 48 48 48 42 39 42 42 35 35 39 39 32 26 32
0 0 0 0 0 3 3 6 6 6 6 6 6 3 3 6 13 16 16 23 26 23 32 35 39 52 55 58 65 52 45 42 42 48 42 45 45 45 42 39 32 32 32 35 42 39 35 32 19
0 0 0 0 0 0 3 6 6 10 10 6 6 6 10 6 13 13 16 23 26 29 42 45 26 42 58 61 71 48 45 45 48 42 39 39 42 42 45 39 29 32 32 29 35 45 39 35 35
0 0 3 3 0 0 0 3 10 10 10 6 10 10 10 10 10 16 16 23 29 45 45 45 48 52 52 52 65 58 65 58 42 39 42 39 32 39 39 42 39 39 35 35 29 42 35 29 26
0 0 0 0 0 0 3 6 13 10 10 10 10 19 13 13 16 16 13 23 23 48 61 55 61 61 61 52 65 65 58 52 45 42 42 35 29 35 35 35 45 35 35 39 42 35 39 35 39
0 0 0 0 0 0 3 3 6 6 6 10 6 16 19 16 16 16 13 13 23 48 65 68 71 74 65 65 55 55 58 58 42 39 42 35 35 26 35 29 32 29 35 32 35 32 39 35 42
0 0 0 0 0 0 0 0 3 6 6 10 10 13 19 16 26 26 26 23 29 45 55 65 68 68 65 65 68 71 65 55 58 48 45 39 29 29 26 39 35 35 35 35 42 42 35 35 32
0 0 0 0 0 0 0 0 3 3 6 10 6 10 13 23 19 26 26 26 32 48 55 55 68 74 71 61 58 52 55 58 45 45 48 29 32 39 39 32 35 39 39 39 39 39 39 35 39
0 0 0 0 0 0 0 0 6 6 6 10 13 6 19 26 32 39 32 35 26 48 52 61 68 71 68 61 55 58 52 48 52 48 48 42 39 39 39 42 42 42 42 45 39 39 39 45 42
0 0 0 0 0 0 0 0 0 10 3 3 13 10 19 23 26 32 35 42 32 32 55 58 68 71 68 61 58 58 58 52 45 52 52 52 52 39 35 42 45 48 42 42 42 42 42 45 45
0 0 0 0 0 0 0 0 0 6 13 3 16 16 23 19 29 32 32 48 39 39 52 58 68 71 68 68 61 61 61 58 55 52 48 45 45 45 42 39 45 45 45 45 45 45 42 48 39
0 0 0 0 0 0 0 0 0 3 6 10 13 19 29 29 35 35 48 48 45 45 52 55 68 68 65 58 58 55 55 61 55 52 45 45 45 39 42 39 39 42 39 39 42 42 45 42 39
0 0 0 0 0 0 0 0 3 3 6 13 26 26 35 29 42 42 52 48 48 52 48 55 61 65 61 61 58 55 61 55 52 52 45 45 42 42 42 45 39 42 39 32 39 35 35 35 39
0 0 0 0 0 0 0 3 3 3 6 13 16 19 32 35 45 42 52 48 48 52 55 52 65 65 61 61 65 65 58 58 55 58 42 45 42 42 45 45 45 42 32 32 39 39 32 32 39
0 0 0 0 3 0 0 3 3 6 10 10 16 23 32 35 39 42 48 45 45 45 52 52 55 61 58 58 55 52 52 52 55 45 45 45 42 45 42 45 45 42 39 39 39 42 35 35 42
0 0 0 0 0 0 0 3 3 0 10 13 16 32 32 32 35 42 48 52 45 48 52 52 55 55 58 65 58 55 55 55 52 52 45 45 48 45 42 42 42 39 39 39 39 39 35 35 35
0 0 0 0 0 3 3 3 0 3 6 10 26 29 32 35 45 48 48 45 48 48 55 52 48 58 61 58 61 55 52 52 52 48 45 45 48 45 42 42 45 42 39 39 35 35 35 32 29
Height
5887 5887 5887 5886 5885 5885 5885 5884 5883 5882 5880 5879 5878 5876 5875 5874 5873 5874 5870 5867 5864 5861 5859 5858 5860 5862 5862 5863 5863 5863 5864 5865 5865 5865 5866 5867 5867 5868 5868 5869 5870 5871 5872 5873 5873 5874 5874 5875 5876
5890 5890 5889 5887 5887 5888 5887 5886 5884 5883 5882 5880 5879 5878 5876 5875 5874 5872 5870 5868 5866 5863 5861 5861 5861 5862 5863 5863 5863 5863 5864 5864 5865 5865 5866 5866 5867 5868 5868 5869 5870 5871 5871 5872 5873 5873 5874 5875 5875
5892 5891 5890 5889 5890 5890 5889 5888 5886 5885 5883 5882 5880 5879 5877 5876 5874 5873 5871 5869 5867 5865 5864 5863 5863 5863 5863 5863 5863 5863 5864 5864 5864 5865 5866 5866 5867 5867 5868 5869 5869 5870 5871 5871 5872 5872 5873 5874 5875
5893 5891 5892 5892 5893 5892 5891 5890 5888 5886 5885 5883 5882 5880 5878 5877 5875 5874 5872 5871 5869 5867 5866 5865 5864 5864 5863 5863 5862 5862 5863 5864 5864 5865 5866 5866 5867 5867 5868 5868 5869 5869 5870 5871 5871 5871 5872 5873 5873
5894 5892 5893 5894 5894 5894 5893 5891 5889 5888 5886 5884 5883 5881 5879 5878 5876 5875 5873 5872 5870 5868 5867 5866 5865 5864 5863 5861 5860 5861 5862 5863 5865 5865 5865 5866 5866 5867 5867 5868 5868 5869 5869 5869 5870 5870 5870 5871 5872
5892 5892 5895 5896 5896 5896 5895 5893 5891 5889 5887 5885 5884 5882 5880 5879 5877 5876 5874 5873 5871 5870 5869 5868 5866 5865 5863 5861 5860 5860 5862 5863 5865 5865 5865 5866 5866 5866 5867 5867 5867 5867 5868 5868 5868 5868 5869 5870 5871
5896 5896 5898 5898 5898 5898 5896 5894 5892 5891 5889 5887 5885 5883 5881 5880 5878 5877 5876 5874 5873 5872 5870 5869 5868 5866 5865 5863 5862 5862 5863 5864 5865 5866 5866 5866 5866 5866 5866 5866 5866 5867 5867 5867 5867 5867 5867 5868 5869
5900 5901 5901 5900 5900 5900 5898 5896 5894 5892 5890 5888 5887 5885 5883 5881 5880 5879 5877 5876 5875 5873 5872 5871 5869 5868 5867 5865 5864 5864 5865 5866 5866 5866 5866 5865 5864 5864 5864 5865 5866 5866 5866 5866 5866 5865 5866 5866 5867
5902 5904 5902 5902 5902 5901 5899 5897 5896 5893 5892 5890 5888 5886 5884 5882 5881 5880 5879 5878 5876 5875 5874 5872 5871 5870 5869 5868 5867 5867 5867 5867 5867 5868 5867 5865 5863 5862 5863 5864 5865 5865 5865 5865 5864 5864 5864 5864 5865
5904 5904 5904 5903 5904 5902 5901 5899 5897 5895 5893 5891 5889 5888 5886 5884 5883 5882 5881 5879 5878 5877 5875 5874 5873 5873 5872 5870 5869 5869 5869 5869 5869 5869 5868 5866 5864 5863 5863 5864 5864 5864 5864 5864 5863 5862 5862 5863 5864
5907 5907 5907 5905 5905 5904 5903 5901 5899 5897 5895 5893 5891 5890 5888 5886 5884 5883 5882 5881 5880 5878 5877 5876 5875 5875 5874 5872 5872 5871 5871 5871 5870 5870 5869 5868 5866 5865 5865 5865 5865 5865 5864 5863 5862 5861 5861 5861 5862
5908 5908 5908 5907 5906 5905 5903 5903 5901 5898 5897 5895 5893 5891 5889 5888 5887 5885 5884 5883 5881 5880 5879 5878 5877 5876 5876 5875 5874 5874 5873 5872 5872 5871 5870 5869 5868 5867 5866 5866 5865 5864 5864 5862 5861 5860 5860 5860 5861
5911 5909 5908 5908 5908 5906 5905 5904 5902 5900 5899 5897 5895 5893 5891 5890 5889 5887 5886 5884 5883 5882 5881 5880 5879 5878 5878 5877 5876 5875 5875 5874 5873 5872 5871 5870 5869 5868 5867 5867 5865 5865 5863 5862 5860 5859 5859 5859 5860
5911 5911 5910 5909 5909 5907 5906 5905 5904 5902 5900 5899 5897 5895 5893 5892 5890 5889 5888 5886 5885 5884 5883 5882 5881 5880 5879 5878 5878 5877 5876 5875 5874 5873 5872 5871 5870 5869 5868 5867 5866 5864 5863 5861 5860 5858 5858 5859 5860
5910 5910 5911 5910 5909 5908 5906 5905 5905 5903 5902 5900 5898 5897 5895 5893 5892 5891 5889 5888 5887 5886 5885 5884 5883 5882 5880 5880 5879 5878 5877 5876 5875 5874 5873 5872 5871 5870 5870 5868 5867 5864 5863 5861 5860 5858 5859 5859 5860
5910 5910 5910 5910 5909 5908 5908 5905 5905 5903 5903 5901 5899 5898 5896 5894 5893 5892 5891 5890 5889 5888 5886 5885 5884 5883 5882 5881 5881 5879 5878 5877 5876 5875 5874 5873 5872 5871 5870 5869 5867 5865 5863 5862 5860 5859 5858 5859 5860
5910 5911 5911 5912 5910 5908 5907 5905 5905 5904 5903 5901 5900 5898 5897 5895 5894 5893 5892 5891 5890 5889 5887 5887 5885 5885 5884 5882 5882 5881 5879 5878 5877 5876 5875 5874 5872 5871 5870 5869 5868 5866 5865 5863 5861 5860 5859 5860 5860
5911 5911 5912 5912 5910 5909 5907 5906 5905 5905 5903 5902 5900 5899 5898 5896 5895 5893 5892 5891 5890 5889 5888 5887 5886 5885 5884 5883 5882 5881 5880 5879 5877 5876 5875 5874 5873 5871 5870 5870 5868 5867 5866 5864 5863 5861 5861 5861 5861
5911 5912 5912 5911 5910 5909 5908 5906 5905 5904 5903 5902 5901 5899 5898 5896 5894 5894 5893 5892 5891 5890 5889 5888 5887 5886 5885 5884 5882 5881 5880 5879 5877 5876 5875 5874 5873 5872 5870 5869 5869 5868 5866 5865 5864 5863 5862 5861 5861
5910 5911 5911 5911 5910 5909 5907 5905 5904 5903 5902 5902 5901 5899 5898 5896 5895 5894 5893 5892 5891 5890 5889 5888 5887 5886 5885 5884 5883 5882 5880 5879 5878 5876 5875 5874 5873 5872 5870 5869 5869 5867 5866 5865 5864 5863 5863 5862 5861
5909 5909 5910 5910 5909 5908 5906 5904 5903 5903 5902 5901 5900 5899 5898 5896 5895 5894 5893 5892 5891 5890 5889 5888 5887 5886 5885 5884 5883 5882 5880 5879 5878 5876 5875 5874 5873 5871 5870 5869 5868 5867 5866 5865 5864 5863 5862 5862 5861
5907 5908 5908 5908 5908 5907 5907 5904 5902 5902 5901 5900 5899 5899 5897 5896 5895 5893 5892 5891 5890 5889 5888 5888 5887 5885 5884 5883 5882 5881 5880 5879 5877 5876 5874 5873 5872 5871 5870 5869 5867 5867 5865 5864 5863 5862 5862 5861 5860
5905 5906 5906 5906 5906 5906 5905 5903 5902 5900 5899 5898 5897 5897 5897 5896 5894 5892 5891 5890 5889 5888 5888 5887 5886 5885 5883 5882 5881 5880 5879 5878 5876 5875 5874 5872 5871 5870 5869 5868 5866 5865 5864 5863 5862 5861 5860 5859 5859
5903 5905 5905 5905 5904 5903 5903 5902 5900 5899 5899 5898 5897 5896 5896 5895 5894 5892 5891 5889 5889 5888 5887 5886 5885 5884 5883 5881 5880 5879 5878 5876 5875 5873 5872 5871 5869 5868 5867 5866 5865 5863 5862 5861 5860 5859 5858 5857 5856
5902 5903 5904 5903 5902 5901 5902 5901 5900 5898 5898 5897 5896 5896 5895 5894 5893 5891 5890 5888 5888 5887 5885 5884 5883 5882 5881 5880 5878 5877 5876 5874 5873 5872 5870 5869 5867 5866 5865 5864 5863 5861 5860 5859 5858 5856 5855 5854 5854
5899 5901 5903 5903 5901 5900 5899 5899 5899 5896 5894 5895 5895 5894 5893 5892 5891 5890 5888 5887 5886 5885 5884 5883 5881 5880 5879 5878 5877 5875 5874 5872 5871 5869 5868 5866 5865 5864 5862 5861 5860 5858 5857 5856 5855 5854 5852 5852 5851
5896 5898 5900 5901 5899 5899 5897 5896 5895 5894 5893 5893 5893 5892 5891 5890 5889 5887 5886 5885 5885 5883 5882 5881 5879 5878 5877 5876 5874 5873 5871 5870 5868 5866 5865 5863 5862 5861 5859 5858 5856 5855 5854 5852 5851 5850 5849 5848 5847
5894 5895 5897 5897 5897 5897 5896 5894 5892 5890 5891 5891 5890 5889 5888 5886 5886 5885 5884 5883 5882 5881 5880 5879 5878 5876 5875 5873 5871 5869 5868 5866 5865 5863 5862 5860 5859 5858 5856 5855 5853 5851 5850 5849 5847 5846 5845 5844 5843
5890 5892 5893 5894 5895 5895 5894 5893 5889 5888 5888 5888 5887 5886 5885 5885 5884 5882 5882 5881 5880 5879 5878 5876 5875 5874 5872 5870 5869 5867 5865 5863 5862 5860 5859 5857 5856 5854 5853 5851 5850 5848 5846 5845 5844 5842 5841 5840 5839
5886 5887 5889 5890 5891 5891 5891 5890 5885 5884 5884 5884 5883 5882 5883 5882 5881 5880 5879 5878 5877 5876 5875 5874 5872 5871 5869 5867 5865 5864 5862 5860 5858 5857 5855 5853 5852 5851 5849 5847 5846 5844 5842 5841 5839 5838 5837 5835 5834
Wind_Speed
13 13 13 13 15 14 12 10 8 8 7 6 7 7 8 8 8 8 8 8 8 7 5 3 2 2 1 1 2 3 3 3 3 4 4 4 4 4 4 5 5 5 5 5 5 4 5 4 4
13 13 13 15 15 12 10 10 9 8 8 7 7 7 8 8 8 8 8 8 8 7 5 4 4 3 2 1 1 1 2 2 3 3 4 4 4 3 4 5 5 4 5 5 5 5 4 4 4
13 13 14 15 14 11 10 10 10 9 8 7 7 8 8 8 8 8 8 8 9 8 6 5 4 3 3 2 1 1 2 2 2 2 3 4 4 4 4 5 5 5 5 5 5 5 5 4 4
12 13 15 15 11 10 11 10 9 8 8 8 8 8 9 9 8 8 8 8 8 7 6 5 4 3 3 2 2 2 2 2 1 2 3 4 4 4 5 5 5 6 6 5 5 5 5 5 5
12 14 16 13 10 11 10 9 9 9 8 8 8 8 10 9 9 8 8 9 8 7 7 6 6 4 4 3 2 1 1 1 1 1 2 4 4 4 5 5 5 5 5 6 6 6 5 5 5
13 14 13 11 10 10 10 9 8 9 9 8 9 9 10 9 10 9 9 9 8 8 7 7 7 6 6 6 4 1 2 2 1 1 1 2 2 3 4 4 5 5 5 5 5 5 6 5 5
12 13 11 10 9 8 9 9 9 9 9 9 9 9 9 9 9 9 9 9 8 8 7 8 7 7 6 6 5 4 4 3 2 1 0 1 2 3 3 3 3 3 4 4 4 5 5 5 5
11 11 10 8 8 8 9 10 10 9 9 9 8 9 9 9 10 10 9 9 9 8 7 8 8 8 7 6 6 5 4 3 2 1 1 0 2 3 3 3 3 3 4 4 4 4 5 5 6
7 7 8 8 8 7 8 10 11 10 9 9 9 9 10 10 10 10 9 9 9 8 8 8 9 8 8 7 6 5 5 3 3 2 2 2 2 1 1 2 3 3 3 4 4 4 5 6 6
6 7 7 6 6 7 9 9 10 9 10 9 9 11 11 11 10 10 10 10 9 9 8 8 8 8 8 8 7 6 4 3 3 2 2 3 2 1 1 1 1 2 3 3 3 4 6 6 7
6 5 6 6 6 6 7 9 10 9 10 10 10 11 11 10 10 10 10 11 10 10 9 8 8 7 7 8 7 6 5 4 3 2 2 3 2 2 2 1 1 2 2 2 2 4 4 5 6
5 5 6 5 6 6 6 7 9 10 10 11 10 11 10 10 10 10 11 11 10 9 9 9 8 7 7 7 8 7 6 6 5 4 3 3 3 3 3 2 1 2 2 3 2 2 2 4 5
3 5 6 6 7 6 6 7 8 9 10 10 10 10 11 11 10 10 11 10 9 9 9 8 9 8 7 6 6 6 7 7 6 6 5 5 5 5 5 4 4 3 4 4 3 4 3 3 4
2 4 5 6 6 7 6 6 7 9 10 10 10 10 11 11 10 10 10 9 9 9 9 8 8 7 7 6 6 6 7 7 7 7 7 6 5 6 6 5 5 5 5 4 3 3 2 3 2
2 3 4 5 6 7 7 6 6 8 10 11 10 10 10 10 9 9 9 10 9 9 9 9 8 7 6 7 7 6 6 6 7 8 7 7 6 6 6 6 6 5 5 5 4 2 2 2 2
2 4 6 6 7 8 8 8 8 8 8 10 10 10 10 10 9 8 8 9 9 9 9 9 8 8 6 6 7 6 6 7 7 8 7 6 6 6 7 7 6 6 6 5 4 2 2 2 3
2 4 7 7 7 8 8 8 7 8 9 9 10 10 9 9 9 8 8 8 9 9 8 8 8 8 8 7 7 7 8 8 8 8 8 7 6 6 7 7 7 7 7 6 4 2 2 3 4
2 4 7 8 7 7 8 8 7 7 9 9 10 10 9 9 9 9 9 9 9 9 8 8 8 8 8 8 7 8 8 8 8 9 9 8 6 7 7 7 8 8 8 7 4 3 3 4 4
4 6 7 8 9 8 8 9 8 7 9 9 9 10 10 10 9 9 9 9 9 9 9 8 8 8 8 8 8 8 8 9 9 8 9 9 7 7 7 7 8 8 8 7 6 6 5 5 4
7 6 7 7 10 8 9 11 9 9 9 9 9 10 10 9 9 9 9 8 9 9 9 9 9 9 9 9 9 9 9 9 9 9 9 9 8 7 7 8 9 8 8 7 7 7 6 6 6
9 6 7 8 9 10 11 10 8 7 8 9 8 9 10 9 8 9 9 8 8 9 9 9 9 9 9 9 9 10 10 10 9 9 10 9 8 8 8 9 9 9 8 8 7 7 7 7 7
9 8 8 8 10 10 11 12 8 9 8 9 8 9 10 10 10 9 9 9 8 8 9 9 10 10 10 10 10 10 10 10 10 10 10 9 8 9 10 10 10 10 9 9 9 9 9 9 8
9 8 9 9 10 10 9 10 10 9 10 11 10 9 10 11 11 10 10 10 10 10 10 10 10 11 11 11 11 11 11 11 11 11 11 11 10 10 10 11 11 11 11 11 11 10 10 10 10
9 7 9 9 11 11 9 11 11 10 12 12 11 10 10 11 11 11 10 11 11 10 11 11 11 12 12 12 12 12 12 12 12 13 13 13 12 12 12 12 12 12 13 12 12 12 12 12 12
9 8 8 11 11 10 8 9 12 12 12 12 12 12 11 12 12 11 11 11 11 11 12 12 12 13 13 13 13 13 14 14 14 14 14 14 14 14 14 14 14 14 14 14 14 14 13 13 13
10 10 10 11 11 11 9 11 12 12 11 12 13 13 13 13 13 13 12 12 11 12 13 13 13 14 14 14 14 14 15 15 15 15 15 15 15 15 15 15 15 15 15 15 15 15 14 14 14
12 11 10 11 12 12 12 11 12 14 14 13 12 13 15 14 14 13 13 12 12 13 14 14 14 15 15 16 15 15 15 16 16 16 16 15 15 16 16 16 16 16 16 15 15 15 15 15 15
13 11 11 10 11 11 12 13 13 13 14 14 13 14 15 14 13 13 13 14 13 13 14 14 14 15 15 16 16 17 16 17 16 16 15 16 16 17 17 17 17 17 16 16 17 17 17 17 17
14 13 14 13 12 12 14 16 16 15 17 17 17 17 16 16 14 13 14 14 14 14 14 15 15 15 16 16 17 18 18 17 17 17 17 17 18 17 17 17 18 18 18 18 18 18 18 19 19
17 16 15 14 15 13 15 19 17 16 17 19 19 17 17 15 14 14 15 14 14 16 16 16 16 16 17 17 18 18 18 18 18 18 18 18 18 18 19 19 19 20 20 20 19 19 20 20 20
Wind_Direction
76 74 73 68 58 54 46 40 35 32 32 33 31 28 26 25 21 19 17 11 12 17 33 65 99 126 141 161 182 198 210 217 224 217 212 213 210 207 205 205 207 201 202 203 202 207 209 206 208
80 77 70 59 52 46 35 30 31 30 32 26 25 24 21 23 22 20 15 12 16 24 36 58 68 73 66 65 185 209 209 210 220 222 218 215 208 212 215 217 215 211 207 205 212 215 209 211 216
78 72 66 58 44 35 29 27 28 28 31 26 25 21 20 23 23 22 19 18 22 29 36 36 44 56 41 17 311 257 240 218 214 214 218 217 216 221 224 222 220 216 212 215 222 220 214 222 229
77 69 64 60 44 29 27 22 24 28 28 22 22 20 25 28 25 25 23 23 26 32 37 35 30 27 18 351 308 282 231 207 203 195 206 210 213 222 222 218 221 221 218 221 225 225 216 220 226
78 68 60 53 35 25 25 22 26 28 25 22 22 19 25 28 26 25 26 23 25 30 32 28 20 13 12 3 341 244 214 182 168 187 216 214 211 222 220 223 223 219 220 225 230 230 228 226 229
71 64 61 52 35 27 23 19 21 21 25 24 24 20 25 26 28 28 29 28 31 32 34 27 26 37 37 32 39 67 130 130 137 177 189 190 215 219 229 233 230 224 222 235 241 236 238 233 237
64 58 59 47 32 29 22 17 15 21 26 24 21 17 24 22 29 29 30 31 35 32 31 36 40 44 45 49 60 77 105 114 119 101 113 182 219 223 234 239 220 218 225 234 250 243 244 245 249
73 66 56 48 31 27 20 18 17 21 23 23 23 22 24 22 28 27 31 28 31 32 35 36 43 49 51 54 68 76 94 102 92 63 80 84 258 245 230 235 220 229 234 240 251 243 247 244 248
70 63 50 46 30 19 17 17 19 20 20 26 27 27 25 22 28 29 29 26 29 32 32 36 44 43 43 51 62 64 71 75 70 57 49 15 341 276 260 242 235 242 241 246 247 234 239 240 237
40 41 45 44 28 14 15 20 21 15 15 20 29 31 27 26 26 29 29 27 32 37 39 38 42 42 42 49 57 57 51 49 57 56 52 37 30 32 343 271 233 269 259 250 242 237 238 240 236
40 49 51 40 36 21 18 21 16 11 15 18 19 27 30 28 24 28 31 29 31 37 42 40 45 43 41 46 51 47 43 48 59 59 40 32 29 38 14 34 272 291 280 264 261 239 242 242 236
24 17 51 32 23 13 15 23 12 14 18 21 19 21 24 24 24 24 28 30 31 30 33 37 36 37 37 40 39 40 48 50 51 38 10 6 3 12 2 357 327 305 303 299 293 271 251 249 244
34 20 25 19 8 359 7 15 9 13 14 19 17 16 14 16 22 23 25 29 29 25 28 34 34 31 31 30 31 37 37 36 33 23 11 4 3 5 360 359 2 347 341 336 302 290 259 248 240
58 25 4 357 346 345 350 10 3 4 6 10 13 12 9 10 17 20 22 26 29 24 21 20 27 28 27 25 24 28 25 26 25 20 15 8 3 3 3 2 356 356 355 350 327 296 246 249 259
49 353 349 350 337 333 336 1 2 358 359 1 5 4 4 8 15 18 17 22 25 23 19 14 13 23 36 37 29 22 14 15 14 14 11 9 6 5 2 359 353 0 357 347 344 317 265 254 269
11 338 346 342 330 324 329 344 357 348 355 355 356 359 2 5 10 11 9 13 17 15 14 16 14 18 24 23 19 16 11 9 5 5 3 2 1 360 356 353 348 356 9 2 350 313 265 248 267
278 324 329 324 324 324 314 327 343 341 345 351 351 356 359 358 1 2 359 0 4 3 7 9 7 9 9 6 5 4 3 2 1 358 359 357 355 351 353 355 358 359 358 358 358 351 303 269 270
307 315 309 312 314 316 303 308 322 330 333 344 347 352 357 354 353 351 350 350 353 353 356 358 357 357 358 359 359 360 357 358 356 353 353 352 347 347 351 353 357 358 360 356 347 333 311 308 301
302 293 297 307 309 307 300 303 314 320 328 337 343 348 353 350 347 346 345 346 348 348 349 350 349 350 350 351 352 353 353 353 352 352 351 347 342 344 347 350 349 349 350 355 358 351 335 329 325
251 269 292 294 297 303 291 292 306 333 327 332 335 340 345 345 342 339 343 342 343 342 343 344 344 343 342 345 347 346 346 347 350 351 349 349 347 342 340 341 340 338 340 341 344 342 339 334 329
256 265 278 285 294 297 291 291 302 329 319 321 329 331 339 340 339 333 336 334 337 339 338 335 337 337 336 338 341 340 341 341 340 339 341 342 340 338 330 332 334 336 338 340 336 331 330 325 323
254 259 269 279 284 289 291 291 296 304 303 309 320 326 330 334 335 332 332 331 330 331 331 332 330 330 332 333 332 331 332 333 332 329 330 333 334 335 331 331 330 327 325 325 320 319 320 322 321
255 254 261 267 270 276 283 286 296 303 311 311 316 319 320 329 329 324 327 331 333 332 329 329 328 327 327 327 327 327 326 325 326 325 323 323 321 323 324 326 327 324 320 318 315 311 311 313 314
251 257 272 279 278 273 278 285 288 288 297 307 310 310 317 320 324 322 320 323 328 329 324 327 327 328 325 323 323 323 322 320 318 318 318 317 316 315 317 318 318 317 316 313 312 308 305 304 305
246 257 276 283 279 283 283 281 282 288 294 299 305 308 310 311 313 314 311 311 317 319 319 320 321 323 322 322 320 319 319 317 315 314 313 313 312 312 312 311 310 310 309 306 306 304 301 301 301
239 245 262 276 279 283 275 274 280 276 283 293 298 302 305 304 308 310 307 310 313 313 315 318 319 319 317 317 317 315 314 314 315 313 311 311 310 311 311 310 308 307 306 304 302 301 297 295 294
237 240 248 265 279 281 274 275 273 278 284 286 292 295 298 299 304 309 309 309 308 308 311 314 315 317 318 317 316 314 313 313 313 313 311 310 310 311 311 311 309 308 306 304 303 302 298 295 293
240 243 248 250 266 275 280 275 274 284 289 294 288 286 293 294 299 304 306 306 306 307 309 311 312 315 317 318 318 315 311 312 313 312 310 308 307 309 309 309 308 307 306 304 302 301 298 295 293
239 240 241 241 251 263 275 278 278 279 285 292 291 285 289 293 295 302 306 304 305 306 310 311 311 314 316 316 315 314 312 312 311 308 307 305 304 305 306 307 306 305 304 304 303 301 300 296 293
241 242 237 243 250 256 271 277 278 279 279 286 289 290 289 289 291 298 303 304 307 307 309 310 311 312 314 314 313 314 313 313 311 307 305 304 303 303 303 303 303 303 302 301 300 300 299 297 296